This is the latest recevied weather packets stored in our database for station/object JA3YAI-13. If no packets are shown the sender has not sent any weather packets the latest 10 day(s).
| Time | Temp. | Humidity | Pressure | Rain* | Wind** | Luminosity | Snow |
|---|---|---|---|---|---|---|---|
| 1777998983 | 12.78° C | 91% | 1013 hPa | 0 mm | - | - | - |
| 1777998385 | 12.78° C | 91% | 1013 hPa | 0 mm | - | - | - |
| 1777997785 | 12.78° C | 89% | 1013.2 hPa | 0 mm | - | - | - |
| 1777997184 | 13.89° C | 88% | 1013.3 hPa | 0 mm | - | - | - |
| 1777996584 | 13.89° C | 88% | 1013.4 hPa | 0 mm | - | - | - |
| 1777995985 | 14.44° C | 88% | 1013.3 hPa | 0 mm | - | - | - |
| 1777995385 | 14.44° C | 89% | 1013.2 hPa | 0 mm | - | - | - |
| 1777994785 | 13.89° C | 90% | 1013.3 hPa | 0 mm | - | - | - |
| 1777994184 | 13.89° C | 89% | 1013.3 hPa | 0 mm | - | - | - |
| 1777993585 | 13.89° C | 88% | 1013.1 hPa | 0 mm | - | - | - |
| 1777992985 | 14.44° C | 86% | 1013.4 hPa | 0 mm | - | - | - |
| 1777992384 | 15° C | 85% | 1013.4 hPa | 0 mm | - | - | - |
| 1777991784 | 15.56° C | 83% | 1013.2 hPa | 0 mm | - | - | - |
| 1777991184 | 15.56° C | 81% | 1013.2 hPa | 0 mm | - | - | - |
| 1777990585 | 15.56° C | 78% | 1013.2 hPa | 0 mm | - | - | - |
| 1777989985 | 15.56° C | 76% | 1013.2 hPa | 0 mm | - | - | - |
| 1777989384 | 15.56° C | 73% | 1013.3 hPa | 0 mm | - | - | - |
| 1777988784 | 16.11° C | 74% | 1013 hPa | 0 mm | - | - | - |
| 1777988183 | 16.11° C | 75% | 1013.1 hPa | 0 mm | - | - | - |
| 1777987585 | 16.11° C | 75% | 1012.9 hPa | 0 mm | - | - | - |
| 1777986985 | 16.11° C | 75% | 1013.1 hPa | 0 mm | - | - | - |
| 1777986384 | 16.67° C | 73% | 1012.9 hPa | 0 mm | - | - | - |
| 1777985784 | 16.11° C | 74% | 1013.1 hPa | 0 mm | - | - | - |
| 1777985184 | 16.67° C | 74% | 1012.9 hPa | 0 mm | - | - | - |
| 1777984585 | 16.11° C | 74% | 1012.9 hPa | 0 mm | - | - | - |
* Rain latest hour (hover to see other rain measurements)
** Current wind speed in m/s (hover to see current wind gust speed)